Year,Month,Day,Hour,Minute,Value (Times are PST for temperature in C)
2008,10,18,00,00,6.80
2008,10,18,00,01,6.80
2008,10,18,00,02,6.70
2008,10,18,00,03,6.70
2008,10,18,00,04,6.70
2008,10,18,00,05,6.70
2008,10,18,00,06,6.70
2008,10,18,00,07,6.70
2008,10,18,00,08,6.70
2008,10,18,00,09,6.70
2008,10,18,00,10,6.60
2008,10,18,00,11,6.60
2008,10,18,00,12,6.60
2008,10,18,00,13,6.60
2008,10,18,00,14,6.60
2008,10,18,00,15,6.60
2008,10,18,00,16,6.50
2008,10,18,00,17,6.50
2008,10,18,00,18,6.50
2008,10,18,00,19,6.40
2008,10,18,00,20,6.40
2008,10,18,00,21,6.40
2008,10,18,00,22,6.40
2008,10,18,00,23,6.30
2008,10,18,00,24,6.30
2008,10,18,00,25,6.30
2008,10,18,00,26,6.30
2008,10,18,00,27,6.20
2008,10,18,00,28,6.20
2008,10,18,00,29,6.20
2008,10,18,00,30,6.10
2008,10,18,00,31,6.10
2008,10,18,00,32,6.10
2008,10,18,00,33,6.00
2008,10,18,00,34,5.90
2008,10,18,00,35,5.90
2008,10,18,00,36,5.90
2008,10,18,00,37,5.80
2008,10,18,00,38,5.80
2008,10,18,00,39,5.80
2008,10,18,00,40,5.70
2008,10,18,00,41,5.70
2008,10,18,00,42,5.70
2008,10,18,00,43,5.60
2008,10,18,00,44,5.60
2008,10,18,00,45,5.60
2008,10,18,00,46,5.50
2008,10,18,00,47,5.50
2008,10,18,00,48,5.40
2008,10,18,00,49,5.40
2008,10,18,00,50,5.40
2008,10,18,00,51,5.40
2008,10,18,00,52,5.30
2008,10,18,00,53,5.30
2008,10,18,00,54,5.30
2008,10,18,00,55,5.30
2008,10,18,00,56,5.30
2008,10,18,00,57,5.30
2008,10,18,00,58,5.20
2008,10,18,00,59,5.20
2008,10,18,01,00,5.20
2008,10,18,01,01,5.20
2008,10,18,01,02,5.20
2008,10,18,01,03,5.10
2008,10,18,01,04,5.10
2008,10,18,01,05,5.10
2008,10,18,01,06,5.10
2008,10,18,01,07,5.10
2008,10,18,01,08,5.10
2008,10,18,01,09,5.10
2008,10,18,01,10,5.00
2008,10,18,01,11,5.00
2008,10,18,01,12,5.00
2008,10,18,01,13,4.90
2008,10,18,01,14,4.90
2008,10,18,01,15,4.90
2008,10,18,01,16,4.90
2008,10,18,01,17,4.90
2008,10,18,01,18,4.90
2008,10,18,01,19,4.90
2008,10,18,01,20,4.80
2008,10,18,01,21,4.80
2008,10,18,01,22,4.80
2008,10,18,01,23,4.80
2008,10,18,01,24,4.80
2008,10,18,01,25,4.80
2008,10,18,01,26,4.80
2008,10,18,01,27,4.80
2008,10,18,01,28,4.80
2008,10,18,01,29,4.80
2008,10,18,01,30,4.70
2008,10,18,01,31,4.70
2008,10,18,01,32,4.70
2008,10,18,01,33,4.70
2008,10,18,01,34,4.70
2008,10,18,01,35,4.70
2008,10,18,01,36,4.70
2008,10,18,01,37,4.60
2008,10,18,01,38,4.60
2008,10,18,01,39,4.60
2008,10,18,01,40,4.60
2008,10,18,01,41,4.50
2008,10,18,01,42,4.50
2008,10,18,01,43,4.50
2008,10,18,01,44,4.40
2008,10,18,01,45,4.40
2008,10,18,01,46,4.40
2008,10,18,01,47,4.40
2008,10,18,01,48,4.40
2008,10,18,01,49,4.30
2008,10,18,01,50,4.30
2008,10,18,01,51,4.30
2008,10,18,01,52,4.30
2008,10,18,01,53,4.30
2008,10,18,01,54,4.30
2008,10,18,01,55,4.30
2008,10,18,01,56,4.30
2008,10,18,01,57,4.20
2008,10,18,01,58,4.20
2008,10,18,01,59,4.20
2008,10,18,02,00,4.20
2008,10,18,02,01,4.20
2008,10,18,02,02,4.20
2008,10,18,02,03,4.20
2008,10,18,02,04,4.20
2008,10,18,02,05,4.10
2008,10,18,02,06,4.10
2008,10,18,02,07,4.10
2008,10,18,02,08,4.10
2008,10,18,02,09,4.10
2008,10,18,02,10,4.10
2008,10,18,02,11,4.10
2008,10,18,02,12,4.10
2008,10,18,02,13,4.10
2008,10,18,02,14,4.10
2008,10,18,02,15,4.10
2008,10,18,02,16,4.00
2008,10,18,02,17,4.00
2008,10,18,02,18,4.00
2008,10,18,02,19,4.00
2008,10,18,02,20,4.00
2008,10,18,02,21,4.00
2008,10,18,02,22,4.00
2008,10,18,02,23,4.00
2008,10,18,02,24,4.00
2008,10,18,02,25,3.90
2008,10,18,02,26,3.90
2008,10,18,02,27,3.90
2008,10,18,02,28,3.90
2008,10,18,02,29,3.90
2008,10,18,02,30,3.90
2008,10,18,02,31,3.90
2008,10,18,02,32,3.90
2008,10,18,02,33,3.90
2008,10,18,02,34,3.90
2008,10,18,02,35,3.90
2008,10,18,02,36,3.80
2008,10,18,02,37,3.80
2008,10,18,02,38,3.80
2008,10,18,02,39,3.80
2008,10,18,02,40,3.80
2008,10,18,02,41,3.80
2008,10,18,02,42,3.80
2008,10,18,02,43,3.80
2008,10,18,02,44,3.80
2008,10,18,02,45,3.80
2008,10,18,02,46,3.80
2008,10,18,02,47,3.80
2008,10,18,02,48,3.80
2008,10,18,02,49,3.80
2008,10,18,02,50,3.80
2008,10,18,02,51,3.80
2008,10,18,02,52,3.80
2008,10,18,02,53,3.80
2008,10,18,02,54,3.80
2008,10,18,02,55,3.80
2008,10,18,02,56,3.80
2008,10,18,02,57,3.80
2008,10,18,02,58,3.80
2008,10,18,02,59,3.80
2008,10,18,03,00,3.80
2008,10,18,03,01,3.80
2008,10,18,03,02,3.80
2008,10,18,03,03,3.80
2008,10,18,03,04,3.70
2008,10,18,03,05,3.70
2008,10,18,03,06,3.70
2008,10,18,03,07,3.70
2008,10,18,03,08,3.70
2008,10,18,03,09,3.70
2008,10,18,03,10,3.70
2008,10,18,03,11,3.70
2008,10,18,03,12,3.70
2008,10,18,03,13,3.70
2008,10,18,03,14,3.70
2008,10,18,03,15,3.70
2008,10,18,03,16,3.70
2008,10,18,03,17,3.60
2008,10,18,03,18,3.60
2008,10,18,03,19,3.60
2008,10,18,03,20,3.60
2008,10,18,03,21,3.60
2008,10,18,03,22,3.60
2008,10,18,03,23,3.60
2008,10,18,03,24,3.60
2008,10,18,03,25,3.50
2008,10,18,03,26,3.50
2008,10,18,03,27,3.50
2008,10,18,03,28,3.50
2008,10,18,03,29,3.50
2008,10,18,03,30,3.40
2008,10,18,03,31,3.40
2008,10,18,03,32,3.40
2008,10,18,03,33,3.40
2008,10,18,03,34,3.40
2008,10,18,03,35,3.40
2008,10,18,03,36,3.40
2008,10,18,03,37,3.30
2008,10,18,03,38,3.30
2008,10,18,03,39,3.30
2008,10,18,03,40,3.30
2008,10,18,03,41,3.30
2008,10,18,03,42,3.30
2008,10,18,03,43,3.30
2008,10,18,03,44,3.30
2008,10,18,03,45,3.30
2008,10,18,03,46,3.30
2008,10,18,03,47,3.30
2008,10,18,03,48,3.30
2008,10,18,03,49,3.20
2008,10,18,03,50,3.20
2008,10,18,03,51,3.20
2008,10,18,03,52,3.20
2008,10,18,03,53,3.20
2008,10,18,03,54,3.20
2008,10,18,03,55,3.20
2008,10,18,03,56,3.20
2008,10,18,03,57,3.20
2008,10,18,03,58,3.20
2008,10,18,03,59,3.20
2008,10,18,04,00,3.20
2008,10,18,04,01,3.20
2008,10,18,04,02,3.10
2008,10,18,04,03,3.10
2008,10,18,04,04,3.10
2008,10,18,04,05,3.10
2008,10,18,04,06,3.10
2008,10,18,04,07,3.10
2008,10,18,04,08,3.10
2008,10,18,04,09,3.10
2008,10,18,04,10,3.10
2008,10,18,04,11,3.10
2008,10,18,04,12,3.10
2008,10,18,04,13,3.10
2008,10,18,04,14,3.10
2008,10,18,04,15,3.00
2008,10,18,04,16,3.10
2008,10,18,04,17,3.00
2008,10,18,04,18,3.00
2008,10,18,04,19,3.00
2008,10,18,04,20,3.00
2008,10,18,04,21,3.00
2008,10,18,04,22,3.00
2008,10,18,04,23,3.00
2008,10,18,04,24,2.90
2008,10,18,04,25,2.90
2008,10,18,04,26,2.90
2008,10,18,04,27,2.90
2008,10,18,04,28,2.90
2008,10,18,04,29,2.90
2008,10,18,04,30,2.90
2008,10,18,04,31,2.90
2008,10,18,04,32,2.90
2008,10,18,04,33,2.90
2008,10,18,04,34,2.90
2008,10,18,04,35,2.90
2008,10,18,04,36,2.90
2008,10,18,04,37,2.80
2008,10,18,04,38,2.80
2008,10,18,04,39,2.80
2008,10,18,04,40,2.80
2008,10,18,04,41,2.80
2008,10,18,04,42,2.80
2008,10,18,04,43,2.80
2008,10,18,04,44,2.80
2008,10,18,04,45,2.80
2008,10,18,04,46,2.80
2008,10,18,04,47,2.80
2008,10,18,04,48,2.70
2008,10,18,04,49,2.70
2008,10,18,04,50,2.70
2008,10,18,04,51,2.70
2008,10,18,04,52,2.70
2008,10,18,04,53,2.70
2008,10,18,04,54,2.70
2008,10,18,04,55,2.70
2008,10,18,04,56,2.70
2008,10,18,04,57,2.70
2008,10,18,04,58,2.60
2008,10,18,04,59,2.60
2008,10,18,05,00,2.60
2008,10,18,05,01,2.60
2008,10,18,05,02,2.60
2008,10,18,05,03,2.60
2008,10,18,05,04,2.60
2008,10,18,05,05,2.60
2008,10,18,05,06,2.60
2008,10,18,05,07,2.60
2008,10,18,05,08,2.60
2008,10,18,05,09,2.60
2008,10,18,05,10,2.50
2008,10,18,05,11,2.50
2008,10,18,05,12,2.50
2008,10,18,05,13,2.50
2008,10,18,05,14,2.50
2008,10,18,05,15,2.50
2008,10,18,05,16,2.40
2008,10,18,05,17,2.40
2008,10,18,05,18,2.40
2008,10,18,05,19,2.40
2008,10,18,05,20,2.40
2008,10,18,05,21,2.40
2008,10,18,05,22,2.30
2008,10,18,05,23,2.30
2008,10,18,05,24,2.30
2008,10,18,05,25,2.30
2008,10,18,05,26,2.30
2008,10,18,05,27,2.30
2008,10,18,05,28,2.30
2008,10,18,05,29,2.30
2008,10,18,05,30,2.30
2008,10,18,05,31,2.30
2008,10,18,05,32,2.30
2008,10,18,05,33,2.30
2008,10,18,05,34,2.20
2008,10,18,05,35,2.20
2008,10,18,05,36,2.20
2008,10,18,05,37,2.20
2008,10,18,05,38,2.20
2008,10,18,05,39,2.20
2008,10,18,05,40,2.20
2008,10,18,05,41,2.20
2008,10,18,05,42,2.20
2008,10,18,05,43,2.20
2008,10,18,05,44,2.20
2008,10,18,05,45,2.20
2008,10,18,05,46,2.20
2008,10,18,05,47,2.20
2008,10,18,05,48,2.20
2008,10,18,05,49,2.20
2008,10,18,05,50,2.20
2008,10,18,05,51,2.20
2008,10,18,05,52,2.30
2008,10,18,05,53,2.30
2008,10,18,05,54,2.30
2008,10,18,05,55,2.30
2008,10,18,05,56,2.30
2008,10,18,05,57,2.30
2008,10,18,05,58,2.30
2008,10,18,05,59,2.30
2008,10,18,06,00,2.30
2008,10,18,06,01,2.30
2008,10,18,06,02,2.30
2008,10,18,06,03,2.30
2008,10,18,06,04,2.30
2008,10,18,06,05,2.30
2008,10,18,06,06,2.30
2008,10,18,06,07,2.30
2008,10,18,06,08,2.30
2008,10,18,06,09,2.30
2008,10,18,06,10,2.30
2008,10,18,06,11,2.20
2008,10,18,06,12,2.20
2008,10,18,06,13,2.20
2008,10,18,06,14,2.20
2008,10,18,06,15,2.20
2008,10,18,06,16,2.20
2008,10,18,06,17,2.20
2008,10,18,06,18,2.20
2008,10,18,06,19,2.20
2008,10,18,06,20,2.20
2008,10,18,06,21,2.20
2008,10,18,06,22,2.20
2008,10,18,06,23,2.20
2008,10,18,06,24,2.20
2008,10,18,06,25,2.20
2008,10,18,06,26,2.10
2008,10,18,06,27,2.10
2008,10,18,06,28,2.10
2008,10,18,06,29,2.10
2008,10,18,06,30,2.10
2008,10,18,06,31,2.10
2008,10,18,06,32,2.10
2008,10,18,06,33,2.10
2008,10,18,06,34,2.00
2008,10,18,06,35,2.00
2008,10,18,06,36,2.00
2008,10,18,06,37,2.00
2008,10,18,06,38,2.00
2008,10,18,06,39,2.00
2008,10,18,06,40,2.00
2008,10,18,06,41,2.00
2008,10,18,06,42,2.00
2008,10,18,06,43,1.90
2008,10,18,06,44,2.00
2008,10,18,06,45,2.00
2008,10,18,06,46,2.00
2008,10,18,06,47,2.00
2008,10,18,06,48,2.00
2008,10,18,06,49,2.00
2008,10,18,06,50,2.00
2008,10,18,06,51,2.00
2008,10,18,06,52,2.00
2008,10,18,06,53,2.00
2008,10,18,06,54,2.00
2008,10,18,06,55,2.00
2008,10,18,06,56,2.00
2008,10,18,06,57,1.90
2008,10,18,06,58,1.90
2008,10,18,06,59,1.90
2008,10,18,07,00,1.90
2008,10,18,07,01,1.90
2008,10,18,07,02,1.90
2008,10,18,07,03,1.90
2008,10,18,07,04,1.90
2008,10,18,07,05,1.90
2008,10,18,07,06,1.90
2008,10,18,07,07,1.90
2008,10,18,07,08,1.90
2008,10,18,07,09,1.90
2008,10,18,07,10,1.90
2008,10,18,07,11,1.90
2008,10,18,07,12,1.80
2008,10,18,07,13,1.80
2008,10,18,07,14,1.80
2008,10,18,07,15,1.80
2008,10,18,07,16,1.80
2008,10,18,07,17,1.80
2008,10,18,07,18,1.80
2008,10,18,07,19,1.80
2008,10,18,07,20,1.80
2008,10,18,07,21,1.80
2008,10,18,07,22,1.80
2008,10,18,07,23,1.80
2008,10,18,07,24,1.70
2008,10,18,07,25,1.70
2008,10,18,07,26,1.70
2008,10,18,07,27,1.70
2008,10,18,07,28,1.70
2008,10,18,07,29,1.70
2008,10,18,07,30,1.70
2008,10,18,07,31,1.70
2008,10,18,07,32,1.70
2008,10,18,07,33,1.70
2008,10,18,07,34,1.60
2008,10,18,07,35,1.60
2008,10,18,07,36,1.60
2008,10,18,07,37,1.60
2008,10,18,07,38,1.60
2008,10,18,07,39,1.60
2008,10,18,07,40,1.60
2008,10,18,07,41,1.60
2008,10,18,07,42,1.60
2008,10,18,07,43,1.60
2008,10,18,07,44,1.60
2008,10,18,07,45,1.60
2008,10,18,07,46,1.50
2008,10,18,07,47,1.50
2008,10,18,07,48,1.50
2008,10,18,07,49,1.50
2008,10,18,07,50,1.40
2008,10,18,07,51,1.40
2008,10,18,07,52,1.40
2008,10,18,07,53,1.40
2008,10,18,07,54,1.40
2008,10,18,07,55,1.40
2008,10,18,07,56,1.40
2008,10,18,07,57,1.40
2008,10,18,07,58,1.40
2008,10,18,07,59,1.40
2008,10,18,08,00,1.40
2008,10,18,08,01,1.50
2008,10,18,08,02,1.50
2008,10,18,08,03,1.50
2008,10,18,08,04,1.50
2008,10,18,08,05,1.50
2008,10,18,08,06,1.50
2008,10,18,08,07,1.50
2008,10,18,08,08,1.50
2008,10,18,08,09,1.50
2008,10,18,08,10,1.50
2008,10,18,08,11,1.50
2008,10,18,08,12,1.50
2008,10,18,08,13,1.50
2008,10,18,08,14,1.50
2008,10,18,08,15,1.40
2008,10,18,08,16,1.50
2008,10,18,08,17,1.40
2008,10,18,08,18,1.40
2008,10,18,08,19,1.40
2008,10,18,08,20,1.40
2008,10,18,08,21,1.40
2008,10,18,08,22,1.40
2008,10,18,08,23,1.50
2008,10,18,08,24,1.50
2008,10,18,08,25,1.50
2008,10,18,08,26,1.50
2008,10,18,08,27,1.50
2008,10,18,08,28,1.50
2008,10,18,08,29,1.50
2008,10,18,08,30,1.50
2008,10,18,08,31,1.50
2008,10,18,08,32,1.50
2008,10,18,08,33,1.50
2008,10,18,08,34,1.50
2008,10,18,08,35,1.50
2008,10,18,08,36,1.60
2008,10,18,08,37,1.60
2008,10,18,08,38,1.60
2008,10,18,08,39,1.60
2008,10,18,08,40,1.60
2008,10,18,08,41,1.70
2008,10,18,08,42,1.70
2008,10,18,08,43,1.70
2008,10,18,08,44,1.70
2008,10,18,08,45,1.70
2008,10,18,08,46,1.70
2008,10,18,08,47,1.80
2008,10,18,08,48,1.80
2008,10,18,08,49,1.80
2008,10,18,08,50,1.80
2008,10,18,08,51,1.80
2008,10,18,08,52,1.80
2008,10,18,08,53,1.80
2008,10,18,08,54,1.80
2008,10,18,08,55,1.80
2008,10,18,08,56,1.90
2008,10,18,08,57,1.90
2008,10,18,08,58,1.90
2008,10,18,08,59,1.90
2008,10,18,09,00,2.00
2008,10,18,09,01,2.00
2008,10,18,09,02,2.00
2008,10,18,09,03,2.10
2008,10,18,09,04,2.10
2008,10,18,09,05,2.10
2008,10,18,09,06,2.10
2008,10,18,09,07,2.20
2008,10,18,09,08,2.20
2008,10,18,09,09,2.20
2008,10,18,09,10,2.30
2008,10,18,09,11,2.30
2008,10,18,09,12,2.30
2008,10,18,09,13,2.40
2008,10,18,09,14,2.40
2008,10,18,09,15,2.50
2008,10,18,09,16,2.60
2008,10,18,09,17,2.60
2008,10,18,09,18,2.70
2008,10,18,09,19,2.70
2008,10,18,09,20,2.70
2008,10,18,09,21,2.80
2008,10,18,09,22,2.80
2008,10,18,09,23,2.90
2008,10,18,09,24,2.90
2008,10,18,09,25,2.90
2008,10,18,09,26,3.00
2008,10,18,09,27,3.00
2008,10,18,09,28,3.10
2008,10,18,09,29,3.10
2008,10,18,09,30,3.10
2008,10,18,09,31,3.20
2008,10,18,09,32,3.20
2008,10,18,09,33,3.20
2008,10,18,09,34,3.30
2008,10,18,09,35,3.30
2008,10,18,09,36,3.30
2008,10,18,09,37,3.40
2008,10,18,09,38,3.50
2008,10,18,09,39,3.50
2008,10,18,09,40,3.60
2008,10,18,09,41,3.60
2008,10,18,09,42,3.70
2008,10,18,09,43,3.80
2008,10,18,09,44,3.80
2008,10,18,09,45,3.90
2008,10,18,09,46,4.00
2008,10,18,09,47,4.00
2008,10,18,09,48,4.10
2008,10,18,09,49,4.10
2008,10,18,09,50,4.20
2008,10,18,09,51,4.20
2008,10,18,09,52,4.30
2008,10,18,09,53,4.30
2008,10,18,09,54,4.30
2008,10,18,09,55,4.40
2008,10,18,09,56,4.40
2008,10,18,09,57,4.40
2008,10,18,09,58,4.50
2008,10,18,09,59,4.50
2008,10,18,10,00,4.60
2008,10,18,10,01,4.60
2008,10,18,10,02,4.70
2008,10,18,10,03,4.80
2008,10,18,10,04,4.80
2008,10,18,10,05,4.90
2008,10,18,10,06,5.00
2008,10,18,10,07,5.10
2008,10,18,10,08,5.10
2008,10,18,10,09,5.20
2008,10,18,10,10,5.30
2008,10,18,10,11,5.40
2008,10,18,10,12,5.40
2008,10,18,10,13,5.50
2008,10,18,10,14,5.50
2008,10,18,10,15,5.60
2008,10,18,10,16,5.60
2008,10,18,10,17,5.70
2008,10,18,10,18,5.70
2008,10,18,10,19,5.80
2008,10,18,10,20,5.80
2008,10,18,10,21,5.90
2008,10,18,10,22,6.00
2008,10,18,10,23,6.00
2008,10,18,10,24,6.10
2008,10,18,10,25,6.20
2008,10,18,10,26,6.30
2008,10,18,10,27,6.40
2008,10,18,10,28,6.40
2008,10,18,10,29,6.50
2008,10,18,10,30,6.60
2008,10,18,10,31,6.60
2008,10,18,10,32,6.60
2008,10,18,10,33,6.70
2008,10,18,10,34,6.70
2008,10,18,10,35,6.70
2008,10,18,10,36,6.80
2008,10,18,10,37,6.80
2008,10,18,10,38,6.90
2008,10,18,10,39,6.90
2008,10,18,10,40,7.00
2008,10,18,10,41,7.10
2008,10,18,10,42,7.20
2008,10,18,10,43,7.20
2008,10,18,10,44,7.30
2008,10,18,10,45,7.40
2008,10,18,10,46,7.50
2008,10,18,10,47,7.60
2008,10,18,10,48,7.70
2008,10,18,10,49,7.80
2008,10,18,10,50,7.90
2008,10,18,10,51,8.00
2008,10,18,10,52,8.10
2008,10,18,10,53,8.10
2008,10,18,10,54,8.20
2008,10,18,10,55,8.20
2008,10,18,10,56,8.30
2008,10,18,10,57,8.30
2008,10,18,10,58,8.40
2008,10,18,10,59,8.50
2008,10,18,11,00,8.60
2008,10,18,11,01,8.60
2008,10,18,11,02,8.70
2008,10,18,11,03,8.80
2008,10,18,11,04,8.80
2008,10,18,11,05,8.90
2008,10,18,11,06,8.90
2008,10,18,11,07,9.00
2008,10,18,11,08,9.10
2008,10,18,11,09,9.10
2008,10,18,11,10,9.20
2008,10,18,11,11,9.20
2008,10,18,11,12,9.30
2008,10,18,11,13,9.40
2008,10,18,11,14,9.40
2008,10,18,11,15,9.50
2008,10,18,11,16,9.60
2008,10,18,11,17,9.60
2008,10,18,11,18,9.70
2008,10,18,11,19,9.70
2008,10,18,11,20,9.80
2008,10,18,11,21,9.80
2008,10,18,11,22,9.90
2008,10,18,11,23,9.90
2008,10,18,11,24,9.90
2008,10,18,11,25,10.00
2008,10,18,11,26,10.00
2008,10,18,11,27,10.10
2008,10,18,11,28,10.10
2008,10,18,11,29,10.10
2008,10,18,11,30,10.20
2008,10,18,11,31,10.20
2008,10,18,11,32,10.30
2008,10,18,11,33,10.30
2008,10,18,11,34,10.30
2008,10,18,11,35,10.40
2008,10,18,11,36,10.50
2008,10,18,11,37,10.50
2008,10,18,11,38,10.60
2008,10,18,11,39,10.60
2008,10,18,11,40,10.60
2008,10,18,11,41,10.70
2008,10,18,11,42,10.70
2008,10,18,11,43,10.80
2008,10,18,11,44,10.80
2008,10,18,11,45,10.80
2008,10,18,11,46,10.90
2008,10,18,11,47,11.00
2008,10,18,11,48,11.00
2008,10,18,11,49,11.10
2008,10,18,11,50,11.10
2008,10,18,11,51,11.20
2008,10,18,11,52,11.20
2008,10,18,11,53,11.20
2008,10,18,11,54,11.20
2008,10,18,11,55,11.30
2008,10,18,11,56,11.30
2008,10,18,11,57,11.30
2008,10,18,11,58,11.40
2008,10,18,11,59,11.40
2008,10,18,12,00,11.50
2008,10,18,12,01,11.50
2008,10,18,12,02,11.50
2008,10,18,12,03,11.60
2008,10,18,12,04,11.60
2008,10,18,12,05,11.70
2008,10,18,12,06,11.70
2008,10,18,12,07,11.70
2008,10,18,12,08,11.70
2008,10,18,12,09,11.80
2008,10,18,12,10,11.80
2008,10,18,12,11,11.80
2008,10,18,12,12,11.80
2008,10,18,12,13,11.80
2008,10,18,12,14,11.80
2008,10,18,12,15,11.80
2008,10,18,12,16,11.90
2008,10,18,12,17,11.90
2008,10,18,12,18,11.90
2008,10,18,12,19,12.00
2008,10,18,12,20,12.00
2008,10,18,12,21,12.00
2008,10,18,12,22,12.00
2008,10,18,12,23,12.00
2008,10,18,12,24,12.00
2008,10,18,12,25,12.00
2008,10,18,12,26,12.00
2008,10,18,12,27,12.00
2008,10,18,12,28,12.00
2008,10,18,12,29,12.00
2008,10,18,12,30,12.00
2008,10,18,12,31,12.00
2008,10,18,12,32,12.00
2008,10,18,12,33,11.90
2008,10,18,12,34,11.90
2008,10,18,12,35,11.90
2008,10,18,12,36,11.90
2008,10,18,12,37,11.90
2008,10,18,12,38,11.90
2008,10,18,12,39,11.90
2008,10,18,12,40,11.90
2008,10,18,12,41,11.90
2008,10,18,12,42,11.90
2008,10,18,12,43,11.90
2008,10,18,12,44,11.90
2008,10,18,12,45,11.90
2008,10,18,12,46,11.90
2008,10,18,12,47,11.90
2008,10,18,12,48,11.90
2008,10,18,12,49,11.80
2008,10,18,12,50,11.80
2008,10,18,12,51,11.80
2008,10,18,12,52,11.80
2008,10,18,12,53,11.80
2008,10,18,12,54,11.80
2008,10,18,12,55,11.80
2008,10,18,12,56,11.70
2008,10,18,12,57,11.70
2008,10,18,12,58,11.70
2008,10,18,12,59,11.70
2008,10,18,13,00,11.70
2008,10,18,13,01,11.70
2008,10,18,13,02,11.70
2008,10,18,13,03,11.80
2008,10,18,13,04,11.80
2008,10,18,13,05,11.80
2008,10,18,13,06,11.80
2008,10,18,13,07,11.80
2008,10,18,13,08,11.80
2008,10,18,13,09,11.80
2008,10,18,13,10,11.80
2008,10,18,13,11,11.80
2008,10,18,13,12,11.80
2008,10,18,13,13,11.80
2008,10,18,13,14,11.90
2008,10,18,13,15,11.90
2008,10,18,13,16,11.90
2008,10,18,13,17,11.90
2008,10,18,13,18,11.90
2008,10,18,13,19,12.00
2008,10,18,13,20,12.00
2008,10,18,13,21,12.00
2008,10,18,13,22,12.00
2008,10,18,13,23,12.10
2008,10,18,13,24,12.10
2008,10,18,13,25,12.10
2008,10,18,13,26,12.10
2008,10,18,13,27,12.10
2008,10,18,13,28,12.10
2008,10,18,13,29,12.10
2008,10,18,13,30,12.10
2008,10,18,13,31,12.10
2008,10,18,13,32,12.10
2008,10,18,13,33,12.10
2008,10,18,13,34,12.10
2008,10,18,13,35,12.10
2008,10,18,13,36,12.10
2008,10,18,13,37,12.10
2008,10,18,13,38,12.00
2008,10,18,13,39,12.00
2008,10,18,13,40,12.00
2008,10,18,13,41,12.10
2008,10,18,13,42,12.10
2008,10,18,13,43,12.10
2008,10,18,13,44,12.10
2008,10,18,13,45,12.20
2008,10,18,13,46,12.20
2008,10,18,13,47,12.20
2008,10,18,13,48,12.30
2008,10,18,13,49,12.30
2008,10,18,13,50,12.30
2008,10,18,13,51,12.40
2008,10,18,13,52,12.40
2008,10,18,13,53,12.40
2008,10,18,13,54,12.40
2008,10,18,13,55,12.50
2008,10,18,13,56,12.50
2008,10,18,13,57,12.60
2008,10,18,13,58,12.60
2008,10,18,13,59,12.60
2008,10,18,14,00,12.60
2008,10,18,14,01,12.60
2008,10,18,14,02,12.60
2008,10,18,14,03,12.70
2008,10,18,14,04,12.70
2008,10,18,14,05,12.70
2008,10,18,14,06,12.70
2008,10,18,14,07,12.70
2008,10,18,14,08,12.70
2008,10,18,14,09,12.70
2008,10,18,14,10,12.70
2008,10,18,14,11,12.70
2008,10,18,14,12,12.70
2008,10,18,14,13,12.70
2008,10,18,14,14,12.70
2008,10,18,14,15,12.70
2008,10,18,14,16,12.70
2008,10,18,14,17,12.60
2008,10,18,14,18,12.60
2008,10,18,14,19,12.60
2008,10,18,14,20,12.50
2008,10,18,14,21,12.50
2008,10,18,14,22,12.40
2008,10,18,14,23,12.50
2008,10,18,14,24,12.50
2008,10,18,14,25,12.50
2008,10,18,14,26,12.50
2008,10,18,14,27,12.50
2008,10,18,14,28,12.50
2008,10,18,14,29,12.40
2008,10,18,14,30,12.40
2008,10,18,14,31,12.40
2008,10,18,14,32,12.40
2008,10,18,14,33,12.40
2008,10,18,14,34,12.40
2008,10,18,14,35,12.40
2008,10,18,14,36,12.40
2008,10,18,14,37,12.40
2008,10,18,14,38,12.50
2008,10,18,14,39,12.50
2008,10,18,14,40,12.60
2008,10,18,14,41,12.60
2008,10,18,14,42,12.60
2008,10,18,14,43,12.50
2008,10,18,14,44,12.50
2008,10,18,14,45,12.40
2008,10,18,14,46,12.40
2008,10,18,14,47,12.40
2008,10,18,14,48,12.30
2008,10,18,14,49,12.30
2008,10,18,14,50,12.30
2008,10,18,14,51,12.30
2008,10,18,14,52,12.20
2008,10,18,14,53,12.20
2008,10,18,14,54,12.10
2008,10,18,14,55,12.10
2008,10,18,14,56,12.00
2008,10,18,14,57,11.90
2008,10,18,14,58,11.90
2008,10,18,14,59,11.80
2008,10,18,15,00,11.80
2008,10,18,15,01,11.70
2008,10,18,15,02,11.70
2008,10,18,15,03,11.60
2008,10,18,15,04,11.60
2008,10,18,15,05,11.60
2008,10,18,15,06,11.60
2008,10,18,15,07,11.50
2008,10,18,15,08,11.50
2008,10,18,15,09,11.50
2008,10,18,15,10,11.40
2008,10,18,15,11,11.40
2008,10,18,15,12,11.40
2008,10,18,15,13,11.40
2008,10,18,15,14,11.40
2008,10,18,15,15,11.40
2008,10,18,15,16,11.40
2008,10,18,15,17,11.30
2008,10,18,15,18,11.30
2008,10,18,15,19,11.30
2008,10,18,15,20,11.30
2008,10,18,15,21,11.30
2008,10,18,15,22,11.20
2008,10,18,15,23,11.20
2008,10,18,15,24,11.20
2008,10,18,15,25,11.20
2008,10,18,15,26,11.10
2008,10,18,15,27,11.10
2008,10,18,15,28,11.10
2008,10,18,15,29,11.00
2008,10,18,15,30,11.00
2008,10,18,15,31,11.00
2008,10,18,15,32,11.00
2008,10,18,15,33,11.00
2008,10,18,15,34,11.00
2008,10,18,15,35,11.00
2008,10,18,15,36,11.00
2008,10,18,15,37,11.00
2008,10,18,15,38,11.00
2008,10,18,15,39,10.90
2008,10,18,15,40,10.90
2008,10,18,15,41,10.90
2008,10,18,15,42,10.90
2008,10,18,15,43,10.80
2008,10,18,15,44,10.80
2008,10,18,15,45,10.80
2008,10,18,15,46,10.80
2008,10,18,15,47,10.80
2008,10,18,15,48,10.70
2008,10,18,15,49,10.70
2008,10,18,15,50,10.70
2008,10,18,15,51,10.70
2008,10,18,15,52,10.70
2008,10,18,15,53,10.70
2008,10,18,15,54,10.70
2008,10,18,15,55,10.70
2008,10,18,15,56,10.70
2008,10,18,15,57,10.70
2008,10,18,15,58,10.70
2008,10,18,15,59,10.70
2008,10,18,16,00,10.70
2008,10,18,16,01,10.70
2008,10,18,16,02,10.70
2008,10,18,16,03,10.70
2008,10,18,16,04,10.70
2008,10,18,16,05,10.70
2008,10,18,16,06,10.70
2008,10,18,16,07,10.70
2008,10,18,16,08,10.70
2008,10,18,16,09,10.70
2008,10,18,16,10,10.70
2008,10,18,16,11,10.70
2008,10,18,16,12,10.70
2008,10,18,16,13,10.70
2008,10,18,16,14,10.70
2008,10,18,16,15,10.70
2008,10,18,16,16,10.60
2008,10,18,16,17,10.60
2008,10,18,16,18,10.60
2008,10,18,16,19,10.60
2008,10,18,16,20,10.60
2008,10,18,16,21,10.60
2008,10,18,16,22,10.60
2008,10,18,16,23,10.60
2008,10,18,16,24,10.60
2008,10,18,16,25,10.60
2008,10,18,16,26,10.60
2008,10,18,16,27,10.50
2008,10,18,16,28,10.50
2008,10,18,16,29,10.50
2008,10,18,16,30,10.50
2008,10,18,16,31,10.50
2008,10,18,16,32,10.50
2008,10,18,16,33,10.50
2008,10,18,16,34,10.50
2008,10,18,16,35,10.50
2008,10,18,16,36,10.50
2008,10,18,16,37,10.50
2008,10,18,16,38,10.50
2008,10,18,16,39,10.50
2008,10,18,16,40,10.50
2008,10,18,16,41,10.60
2008,10,18,16,42,10.50
2008,10,18,16,43,10.50
2008,10,18,16,44,10.60
2008,10,18,16,45,10.60
2008,10,18,16,46,10.60
2008,10,18,16,47,10.60
2008,10,18,16,48,10.60
2008,10,18,16,49,10.60
2008,10,18,16,50,10.60
2008,10,18,16,51,10.70
2008,10,18,16,52,10.70
2008,10,18,16,53,10.70
2008,10,18,16,54,10.70
2008,10,18,16,55,10.70
2008,10,18,16,56,10.70
2008,10,18,16,57,10.70
2008,10,18,16,58,10.70
2008,10,18,16,59,10.70
2008,10,18,17,00,10.60
2008,10,18,17,01,10.60
2008,10,18,17,02,10.60
2008,10,18,17,03,10.60
2008,10,18,17,04,10.60
2008,10,18,17,05,10.60
2008,10,18,17,06,10.60
2008,10,18,17,07,10.50
2008,10,18,17,08,10.50
2008,10,18,17,09,10.50
2008,10,18,17,10,10.50
2008,10,18,17,11,10.40
2008,10,18,17,12,10.40
2008,10,18,17,13,10.40
2008,10,18,17,14,10.40
2008,10,18,17,15,10.40
2008,10,18,17,16,10.40
2008,10,18,17,17,10.40
2008,10,18,17,18,10.40
2008,10,18,17,19,10.40
2008,10,18,17,20,10.40
2008,10,18,17,21,10.40
2008,10,18,17,22,10.40
2008,10,18,17,23,10.40
2008,10,18,17,24,10.40
2008,10,18,17,25,10.30
2008,10,18,17,26,10.30
2008,10,18,17,27,10.30
2008,10,18,17,28,10.30
2008,10,18,17,29,10.30
2008,10,18,17,30,10.30
2008,10,18,17,31,10.30
2008,10,18,17,32,10.30
2008,10,18,17,33,10.20
2008,10,18,17,34,10.20
2008,10,18,17,35,10.20
2008,10,18,17,36,10.20
2008,10,18,17,37,10.10
2008,10,18,17,38,10.10
2008,10,18,17,39,10.10
2008,10,18,17,40,10.10
2008,10,18,17,41,10.10
2008,10,18,17,42,10.00
2008,10,18,17,43,10.00
2008,10,18,17,44,9.90
2008,10,18,17,45,9.90
2008,10,18,17,46,9.80
2008,10,18,17,47,9.80
2008,10,18,17,48,9.80
2008,10,18,17,49,9.80